owner,sensor,date,latitude,longitude,vertical_datum,mass_concentration_of_oxygen_in_sea_water,qcFlag 
DISL,ioos:station:DISL:CATA:1,2012-11-01T00:00:00Z,30.3085,-88.1395,2.19,8.76,1111122 
DISL,ioos:station:DISL:CATA:1,2012-11-01T00:30:00Z,30.3085,-88.1395,2.217,8.77,1111122 
DISL,ioos:station:DISL:CATA:1,2012-11-01T01:00:00Z,30.3085,-88.1395,2.249,8.78,1111122 
DISL,ioos:station:DISL:CATA:1,2012-11-01T01:30:00Z,30.3085,-88.1395,2.275,8.79,1111122 
DISL,ioos:station:DISL:CATA:1,2012-11-01T02:00:00Z,30.3085,-88.1395,2.292,8.79,1111122 
DISL,ioos:station:DISL:CATA:1,2012-11-01T02:30:00Z,30.3085,-88.1395,2.31,8.77,1111122 
DISL,ioos:station:DISL:CATA:1,2012-11-01T03:00:00Z,30.3085,-88.1395,2.32,8.67,1111122 
DISL,ioos:station:DISL:CATA:1,2012-11-01T03:30:00Z,30.3085,-88.1395,2.337,8.59,1111122 
DISL,ioos:station:DISL:CATA:1,2012-11-01T04:00:00Z,30.3085,-88.1395,2.356,8.48,1111122 
DISL,ioos:station:DISL:CATA:1,2012-11-01T04:30:00Z,30.3085,-88.1395,2.364,8.46,1111122 
DISL,ioos:station:DISL:CATA:1,2012-11-01T05:00:00Z,30.3085,-88.1395,2.361,8.42,1111122 
DISL,ioos:station:DISL:CATA:1,2012-11-01T05:30:00Z,30.3085,-88.1395,2.35,8.34,1111122 
DISL,ioos:station:DISL:CATA:1,2012-11-01T06:00:00Z,30.3085,-88.1395,2.342,8.26,1111122 
DISL,ioos:station:DISL:CATA:1,2012-11-01T06:30:00Z,30.3085,-88.1395,2.329,8.2,1111122 
DISL,ioos:station:DISL:CATA:1,2012-11-01T07:00:00Z,30.3085,-88.1395,2.308,8.13,1111122 
DISL,ioos:station:DISL:CATA:1,2012-11-01T07:30:00Z,30.3085,-88.1395,2.29,8.08,1111122 
DISL,ioos:station:DISL:CATA:1,2012-11-01T08:00:00Z,30.3085,-88.1395,2.269,8.15,1111122 
DISL,ioos:station:DISL:CATA:1,2012-11-01T08:30:00Z,30.3085,-88.1395,2.231,8.06,1111122 
DISL,ioos:station:DISL:CATA:1,2012-11-01T09:00:00Z,30.3085,-88.1395,2.184,8.15,1111122 
DISL,ioos:station:DISL:CATA:1,2012-11-01T09:30:00Z,30.3085,-88.1395,2.144,8.17,1111122 
DISL,ioos:station:DISL:CATA:1,2012-11-01T10:00:00Z,30.3085,-88.1395,2.103,8.34,1111122 
DISL,ioos:station:DISL:CATA:1,2012-11-01T10:30:00Z,30.3085,-88.1395,2.072,8.42,1111122 
DISL,ioos:station:DISL:CATA:1,2012-11-01T11:00:00Z,30.3085,-88.1395,2.033,8.43,1111122 
DISL,ioos:station:DISL:CATA:1,2012-11-01T11:30:00Z,30.3085,-88.1395,1.991,8.35,1111122 
DISL,ioos:station:DISL:CATA:1,2012-11-01T12:00:00Z,30.3085,-88.1395,1.952,8.27,1111122 
DISL,ioos:station:DISL:CATA:1,2012-11-01T12:30:00Z,30.3085,-88.1395,1.916,8.42,1111122 
DISL,ioos:station:DISL:CATA:1,2012-11-01T13:00:00Z,30.3085,-88.1395,1.882,8.46,1111122 
DISL,ioos:station:DISL:CATA:1,2012-11-01T13:30:00Z,30.3085,-88.1395,1.85,8.54,1111122 
DISL,ioos:station:DISL:CATA:1,2012-11-01T14:00:00Z,30.3085,-88.1395,1.83,8.56,1111122 
DISL,ioos:station:DISL:CATA:1,2012-11-01T14:30:00Z,30.3085,-88.1395,1.817,8.62,1111122 
DISL,ioos:station:DISL:CATA:1,2012-11-01T15:00:00Z,30.3085,-88.1395,1.813,8.66,1111122 
DISL,ioos:station:DISL:CATA:1,2012-11-01T15:30:00Z,30.3085,-88.1395,1.82,8.76,1111122 
DISL,ioos:station:DISL:CATA:1,2012-11-01T16:00:00Z,30.3085,-88.1395,1.844,8.92,1111122 
DISL,ioos:station:DISL:CATA:1,2012-11-01T16:30:00Z,30.3085,-88.1395,1.877,9.05,1111122 
DISL,ioos:station:DISL:CATA:1,2012-11-01T17:00:00Z,30.3085,-88.1395,1.905,9.1,1111122 
DISL,ioos:station:DISL:CATA:1,2012-11-01T17:30:00Z,30.3085,-88.1395,1.928,9.04,1111122 
DISL,ioos:station:DISL:CATA:1,2012-11-01T18:00:00Z,30.3085,-88.1395,1.949,9.17,1111122 
DISL,ioos:station:DISL:CATA:1,2012-11-01T18:30:00Z,30.3085,-88.1395,1.967,9.35,1111122 
DISL,ioos:station:DISL:CATA:1,2012-11-01T19:00:00Z,30.3085,-88.1395,1.987,9.74,1111122 
DISL,ioos:station:DISL:CATA:1,2012-11-01T19:30:00Z,30.3085,-88.1395,2.016,9.89,1111122 
DISL,ioos:station:DISL:CATA:1,2012-11-01T20:00:00Z,30.3085,-88.1395,2.039,10.14,1111122 
DISL,ioos:station:DISL:CATA:1,2012-11-01T20:30:00Z,30.3085,-88.1395,2.065,10.1,1111122 
DISL,ioos:station:DISL:CATA:1,2012-11-01T21:00:00Z,30.3085,-88.1395,2.094,10.02,1111122 
DISL,ioos:station:DISL:CATA:1,2012-11-01T21:30:00Z,30.3085,-88.1395,2.13,9.96,1111122 
DISL,ioos:station:DISL:CATA:1,2012-11-01T22:00:00Z,30.3085,-88.1395,2.151,9.82,1111122 
DISL,ioos:station:DISL:CATA:1,2012-11-01T22:30:00Z,30.3085,-88.1395,2.177,9.67,1111122 
DISL,ioos:station:DISL:CATA:1,2012-11-01T23:00:00Z,30.3085,-88.1395,2.208,9.57,1111122 
DISL,ioos:station:DISL:CATA:1,2012-11-01T23:30:00Z,30.3085,-88.1395,2.233,9.46,1111122 
DISL,ioos:station:DISL:CATA:1,2012-11-02T00:00:00Z,30.3085,-88.1395,2.269,9.25,1111122 
DISL,ioos:station:DISL:CATA:1,2012-11-02T00:30:00Z,30.3085,-88.1395,2.309,9.04,1111122 
DISL,ioos:station:DISL:CATA:1,2012-11-02T01:00:00Z,30.3085,-88.1395,2.335,8.99,1111122 
DISL,ioos:station:DISL:CATA:1,2012-11-02T01:30:00Z,30.3085,-88.1395,2.367,8.84,1111122 
DISL,ioos:station:DISL:CATA:1,2012-11-02T02:00:00Z,30.3085,-88.1395,2.396,8.74,1111122 
DISL,ioos:station:DISL:CATA:1,2012-11-02T02:30:00Z,30.3085,-88.1395,2.418,8.69,1111122 
DISL,ioos:station:DISL:CATA:1,2012-11-02T03:00:00Z,30.3085,-88.1395,2.435,8.6,1111122 
DISL,ioos:station:DISL:CATA:1,2012-11-02T03:30:00Z,30.3085,-88.1395,2.455,8.41,1111122 
DISL,ioos:station:DISL:CATA:1,2012-11-02T04:00:00Z,30.3085,-88.1395,2.467,8.42,1111122 
DISL,ioos:station:DISL:CATA:1,2012-11-02T04:30:00Z,30.3085,-88.1395,2.475,8.48,1111122 
DISL,ioos:station:DISL:CATA:1,2012-11-02T05:00:00Z,30.3085,-88.1395,2.479,8.74,1111122 
DISL,ioos:station:DISL:CATA:1,2012-11-02T05:30:00Z,30.3085,-88.1395,2.471,8.94,1111122 
DISL,ioos:station:DISL:CATA:1,2012-11-02T06:00:00Z,30.3085,-88.1395,2.454,8.95,1111122 
DISL,ioos:station:DISL:CATA:1,2012-11-02T06:30:00Z,30.3085,-88.1395,2.454,8.68,1111122 
DISL,ioos:station:DISL:CATA:1,2012-11-02T07:00:00Z,30.3085,-88.1395,2.437,8.13,1111122 
DISL,ioos:station:DISL:CATA:1,2012-11-02T07:30:00Z,30.3085,-88.1395,2.413,8.35,1111122 
DISL,ioos:station:DISL:CATA:1,2012-11-02T08:00:00Z,30.3085,-88.1395,2.385,8.46,1111122 
DISL,ioos:station:DISL:CATA:1,2012-11-02T08:30:00Z,30.3085,-88.1395,2.359,8.88,1111122 
DISL,ioos:station:DISL:CATA:1,2012-11-02T09:00:00Z,30.3085,-88.1395,2.329,8.72,1111122 
DISL,ioos:station:DISL:CATA:1,2012-11-02T09:30:00Z,30.3085,-88.1395,2.289,8.66,1111122 
DISL,ioos:station:DISL:CATA:1,2012-11-02T10:00:00Z,30.3085,-88.1395,2.245,8.79,1111122 
DISL,ioos:station:DISL:CATA:1,2012-11-02T10:30:00Z,30.3085,-88.1395,2.205,8.91,1111122 
DISL,ioos:station:DISL:CATA:1,2012-11-02T11:00:00Z,30.3085,-88.1395,2.166,8.96,1111122 
DISL,ioos:station:DISL:CATA:1,2012-11-02T11:30:00Z,30.3085,-88.1395,2.127,8.98,1111122 
DISL,ioos:station:DISL:CATA:1,2012-11-02T12:00:00Z,30.3085,-88.1395,2.095,8.95,1111122 
DISL,ioos:station:DISL:CATA:1,2012-11-02T12:30:00Z,30.3085,-88.1395,2.067,8.97,1111122 
DISL,ioos:station:DISL:CATA:1,2012-11-02T13:00:00Z,30.3085,-88.1395,2.043,8.96,1111122 
DISL,ioos:station:DISL:CATA:1,2012-11-02T13:30:00Z,30.3085,-88.1395,2.026,8.98,1111122 
DISL,ioos:station:DISL:CATA:1,2012-11-02T14:00:00Z,30.3085,-88.1395,2.015,9.0,1111122 
DISL,ioos:station:DISL:CATA:1,2012-11-02T14:30:00Z,30.3085,-88.1395,2.005,9.01,1111122 
DISL,ioos:station:DISL:CATA:1,2012-11-02T15:00:00Z,30.3085,-88.1395,1.997,9.03,1111122 
DISL,ioos:station:DISL:CATA:1,2012-11-02T15:30:00Z,30.3085,-88.1395,1.993,9.09,1111122 
DISL,ioos:station:DISL:CATA:1,2012-11-02T16:00:00Z,30.3085,-88.1395,2.0,9.18,1111122 
DISL,ioos:station:DISL:CATA:1,2012-11-02T16:30:00Z,30.3085,-88.1395,2.005,9.1,1111122 
DISL,ioos:station:DISL:CATA:1,2012-11-02T17:00:00Z,30.3085,-88.1395,2.002,9.25,1111122 
DISL,ioos:station:DISL:CATA:1,2012-11-02T17:30:00Z,30.3085,-88.1395,2.005,9.48,1111122 
DISL,ioos:station:DISL:CATA:1,2012-11-02T18:00:00Z,30.3085,-88.1395,2.0,9.48,1111122 
DISL,ioos:station:DISL:CATA:1,2012-11-02T18:30:00Z,30.3085,-88.1395,2.002,9.45,1111122 
DISL,ioos:station:DISL:CATA:1,2012-11-02T19:00:00Z,30.3085,-88.1395,2.014,9.41,1111122 
DISL,ioos:station:DISL:CATA:1,2012-11-02T19:30:00Z,30.3085,-88.1395,2.039,9.41,1111122 
DISL,ioos:station:DISL:CATA:1,2012-11-02T20:00:00Z,30.3085,-88.1395,2.074,9.55,1111122 
DISL,ioos:station:DISL:CATA:1,2012-11-02T20:30:00Z,30.3085,-88.1395,2.104,9.4,1111122 
DISL,ioos:station:DISL:CATA:1,2012-11-02T21:00:00Z,30.3085,-88.1395,2.119,9.39,1111122 
DISL,ioos:station:DISL:CATA:1,2012-11-02T21:30:00Z,30.3085,-88.1395,2.142,9.33,1111122 
DISL,ioos:station:DISL:CATA:1,2012-11-02T22:00:00Z,30.3085,-88.1395,2.177,9.32,1111122 
DISL,ioos:station:DISL:CATA:1,2012-11-02T22:30:00Z,30.3085,-88.1395,2.203,9.32,1111122 
DISL,ioos:station:DISL:CATA:1,2012-11-02T23:00:00Z,30.3085,-88.1395,2.222,9.29,1111122 
DISL,ioos:station:DISL:CATA:1,2012-11-02T23:30:00Z,30.3085,-88.1395,2.256,9.18,1111122 
DISL,ioos:station:DISL:CATA:1,2012-11-03T00:00:00Z,30.3085,-88.1395,2.287,9.12,1111122 
DISL,ioos:station:DISL:CATA:1,2012-11-03T00:30:00Z,30.3085,-88.1395,2.315,9.1,1111122 
DISL,ioos:station:DISL:CATA:1,2012-11-03T01:00:00Z,30.3085,-88.1395,2.346,9.2,1111122 
DISL,ioos:station:DISL:CATA:1,2012-11-03T01:30:00Z,30.3085,-88.1395,2.373,9.29,1111122 
DISL,ioos:station:DISL:CATA:1,2012-11-03T02:00:00Z,30.3085,-88.1395,2.394,8.97,1111122 
DISL,ioos:station:DISL:CATA:1,2012-11-03T02:30:00Z,30.3085,-88.1395,2.419,8.92,1111122 
DISL,ioos:station:DISL:CATA:1,2012-11-03T03:00:00Z,30.3085,-88.1395,2.45,9.05,1111122 
DISL,ioos:station:DISL:CATA:1,2012-11-03T03:30:00Z,30.3085,-88.1395,2.464,8.68,1111122 
DISL,ioos:station:DISL:CATA:1,2012-11-03T04:00:00Z,30.3085,-88.1395,2.471,8.5,1111122 
DISL,ioos:station:DISL:CATA:1,2012-11-03T04:30:00Z,30.3085,-88.1395,2.479,8.44,1111122 
DISL,ioos:station:DISL:CATA:1,2012-11-03T05:00:00Z,30.3085,-88.1395,2.482,8.37,1111122 
DISL,ioos:station:DISL:CATA:1,2012-11-03T05:30:00Z,30.3085,-88.1395,2.482,8.3,1111122 
DISL,ioos:station:DISL:CATA:1,2012-11-03T06:00:00Z,30.3085,-88.1395,2.476,8.22,1111122 
DISL,ioos:station:DISL:CATA:1,2012-11-03T06:30:00Z,30.3085,-88.1395,2.464,8.2,1111122 
DISL,ioos:station:DISL:CATA:1,2012-11-03T07:00:00Z,30.3085,-88.1395,2.454,8.05,1111122 
DISL,ioos:station:DISL:CATA:1,2012-11-03T07:30:00Z,30.3085,-88.1395,2.437,8.01,1111122 
DISL,ioos:station:DISL:CATA:1,2012-11-03T08:00:00Z,30.3085,-88.1395,2.416,7.73,1111122 
DISL,ioos:station:DISL:CATA:1,2012-11-03T08:30:00Z,30.3085,-88.1395,2.383,7.94,1111122 
DISL,ioos:station:DISL:CATA:1,2012-11-03T09:00:00Z,30.3085,-88.1395,2.356,8.0,1111122 
DISL,ioos:station:DISL:CATA:1,2012-11-03T09:30:00Z,30.3085,-88.1395,2.321,8.06,1111122 
DISL,ioos:station:DISL:CATA:1,2012-11-03T10:00:00Z,30.3085,-88.1395,2.282,8.26,1111122 
DISL,ioos:station:DISL:CATA:1,2012-11-03T10:30:00Z,30.3085,-88.1395,2.248,8.3,1111122 
DISL,ioos:station:DISL:CATA:1,2012-11-03T11:00:00Z,30.3085,-88.1395,2.207,8.33,1111122 
DISL,ioos:station:DISL:CATA:1,2012-11-03T11:30:00Z,30.3085,-88.1395,2.172,8.29,1111122 
DISL,ioos:station:DISL:CATA:1,2012-11-03T12:00:00Z,30.3085,-88.1395,2.141,8.2,1111122 
DISL,ioos:station:DISL:CATA:1,2012-11-03T12:30:00Z,30.3085,-88.1395,2.106,8.12,1111122 
DISL,ioos:station:DISL:CATA:1,2012-11-03T13:00:00Z,30.3085,-88.1395,2.085,8.04,1111122 
DISL,ioos:station:DISL:CATA:1,2012-11-03T13:30:00Z,30.3085,-88.1395,2.056,8.14,1111122 
DISL,ioos:station:DISL:CATA:1,2012-11-03T14:00:00Z,30.3085,-88.1395,2.029,8.22,1111122 
DISL,ioos:station:DISL:CATA:1,2012-11-03T14:30:00Z,30.3085,-88.1395,2.014,8.31,1111122 
DISL,ioos:station:DISL:CATA:1,2012-11-03T15:00:00Z,30.3085,-88.1395,2.003,8.38,1111122 
DISL,ioos:station:DISL:CATA:1,2012-11-03T15:30:00Z,30.3085,-88.1395,1.996,8.44,1111122 
DISL,ioos:station:DISL:CATA:1,2012-11-03T16:00:00Z,30.3085,-88.1395,1.992,8.47,1111122 
DISL,ioos:station:DISL:CATA:1,2012-11-03T16:30:00Z,30.3085,-88.1395,1.992,8.64,1111122 
DISL,ioos:station:DISL:CATA:1,2012-11-03T17:00:00Z,30.3085,-88.1395,2.001,8.66,1111122 
DISL,ioos:station:DISL:CATA:1,2012-11-03T17:30:00Z,30.3085,-88.1395,2.012,8.71,1111122 
DISL,ioos:station:DISL:CATA:1,2012-11-03T18:00:00Z,30.3085,-88.1395,2.024,8.98,1111122 
DISL,ioos:station:DISL:CATA:1,2012-11-03T18:30:00Z,30.3085,-88.1395,2.036,8.94,1111122 
DISL,ioos:station:DISL:CATA:1,2012-11-03T19:00:00Z,30.3085,-88.1395,2.047,9.25,1111122 
DISL,ioos:station:DISL:CATA:1,2012-11-03T19:30:00Z,30.3085,-88.1395,2.055,9.32,1111122 
DISL,ioos:station:DISL:CATA:1,2012-11-03T20:00:00Z,30.3085,-88.1395,2.069,9.38,1111122 
DISL,ioos:station:DISL:CATA:1,2012-11-03T20:30:00Z,30.3085,-88.1395,2.085,9.38,1111122 
DISL,ioos:station:DISL:CATA:1,2012-11-03T21:00:00Z,30.3085,-88.1395,2.106,9.48,1111122 
DISL,ioos:station:DISL:CATA:1,2012-11-03T21:30:00Z,30.3085,-88.1395,2.13,9.34,1111122 
DISL,ioos:station:DISL:CATA:1,2012-11-03T22:00:00Z,30.3085,-88.1395,2.155,9.33,1111122 
DISL,ioos:station:DISL:CATA:1,2012-11-03T22:30:00Z,30.3085,-88.1395,2.184,9.23,1111122 
DISL,ioos:station:DISL:CATA:1,2012-11-03T23:00:00Z,30.3085,-88.1395,2.212,9.11,1111122 
DISL,ioos:station:DISL:CATA:1,2012-11-03T23:30:00Z,30.3085,-88.1395,2.237,9.0,1111122 
DISL,ioos:station:DISL:CATA:1,2012-11-04T00:00:00Z,30.3085,-88.1395,2.264,8.94,1111122 
DISL,ioos:station:DISL:CATA:1,2012-11-04T00:30:00Z,30.3085,-88.1395,2.291,8.89,1111122 
DISL,ioos:station:DISL:CATA:1,2012-11-04T01:00:00Z,30.3085,-88.1395,2.321,8.81,1111122 
DISL,ioos:station:DISL:CATA:1,2012-11-04T01:30:00Z,30.3085,-88.1395,2.34,8.69,1111122 
DISL,ioos:station:DISL:CATA:1,2012-11-04T02:00:00Z,30.3085,-88.1395,2.367,8.58,1111122 
DISL,ioos:station:DISL:CATA:1,2012-11-04T02:30:00Z,30.3085,-88.1395,2.391,8.52,1111122 
DISL,ioos:station:DISL:CATA:1,2012-11-04T03:00:00Z,30.3085,-88.1395,2.415,8.39,1111122 
DISL,ioos:station:DISL:CATA:1,2012-11-04T03:30:00Z,30.3085,-88.1395,2.436,8.28,1111122 
DISL,ioos:station:DISL:CATA:1,2012-11-04T04:00:00Z,30.3085,-88.1395,2.447,8.3,1111122 
DISL,ioos:station:DISL:CATA:1,2012-11-04T04:30:00Z,30.3085,-88.1395,2.46,8.32,1111122 
DISL,ioos:station:DISL:CATA:1,2012-11-04T05:00:00Z,30.3085,-88.1395,2.464,8.34,1111122 
DISL,ioos:station:DISL:CATA:1,2012-11-04T05:30:00Z,30.3085,-88.1395,2.472,8.31,1111122 
DISL,ioos:station:DISL:CATA:1,2012-11-04T06:00:00Z,30.3085,-88.1395,2.469,8.31,1111122 
DISL,ioos:station:DISL:CATA:1,2012-11-04T06:30:00Z,30.3085,-88.1395,2.466,8.23,1111122 
DISL,ioos:station:DISL:CATA:1,2012-11-04T07:00:00Z,30.3085,-88.1395,2.453,8.17,1111122 
DISL,ioos:station:DISL:CATA:1,2012-11-04T07:30:00Z,30.3085,-88.1395,2.437,8.13,1111122 
DISL,ioos:station:DISL:CATA:1,2012-11-04T08:00:00Z,30.3085,-88.1395,2.417,7.97,1111122 
DISL,ioos:station:DISL:CATA:1,2012-11-04T08:30:00Z,30.3085,-88.1395,2.391,7.57,1111122 
DISL,ioos:station:DISL:CATA:1,2012-11-04T09:00:00Z,30.3085,-88.1395,2.365,7.96,1111122 
DISL,ioos:station:DISL:CATA:1,2012-11-04T09:30:00Z,30.3085,-88.1395,2.336,7.99,1111122 
DISL,ioos:station:DISL:CATA:1,2012-11-04T10:00:00Z,30.3085,-88.1395,2.307,7.91,1111122 
DISL,ioos:station:DISL:CATA:1,2012-11-04T10:30:00Z,30.3085,-88.1395,2.278,8.08,1111122 
DISL,ioos:station:DISL:CATA:1,2012-11-04T11:00:00Z,30.3085,-88.1395,2.248,8.03,1111122 
DISL,ioos:station:DISL:CATA:1,2012-11-04T11:30:00Z,30.3085,-88.1395,2.217,8.06,1111122 
DISL,ioos:station:DISL:CATA:1,2012-11-04T12:00:00Z,30.3085,-88.1395,2.183,8.02,1111122 
DISL,ioos:station:DISL:CATA:1,2012-11-04T12:30:00Z,30.3085,-88.1395,2.15,7.97,1111122 
DISL,ioos:station:DISL:CATA:1,2012-11-04T13:00:00Z,30.3085,-88.1395,2.117,8.07,1111122 
DISL,ioos:station:DISL:CATA:1,2012-11-04T13:30:00Z,30.3085,-88.1395,2.082,7.94,1111122 
DISL,ioos:station:DISL:CATA:1,2012-11-04T14:00:00Z,30.3085,-88.1395,2.05,8.01,1111122 
DISL,ioos:station:DISL:CATA:1,2012-11-04T14:30:00Z,30.3085,-88.1395,2.033,7.96,1111122 
DISL,ioos:station:DISL:CATA:1,2012-11-04T15:00:00Z,30.3085,-88.1395,2.009,8.02,1111122 
DISL,ioos:station:DISL:CATA:1,2012-11-04T15:30:00Z,30.3085,-88.1395,2.001,8.05,1111122 
DISL,ioos:station:DISL:CATA:1,2012-11-04T16:00:00Z,30.3085,-88.1395,1.985,8.1,1111122 
DISL,ioos:station:DISL:CATA:1,2012-11-04T16:30:00Z,30.3085,-88.1395,1.969,8.17,1111122 
DISL,ioos:station:DISL:CATA:1,2012-11-04T17:00:00Z,30.3085,-88.1395,1.975,8.25,1111122 
DISL,ioos:station:DISL:CATA:1,2012-11-04T17:30:00Z,30.3085,-88.1395,1.981,8.39,1111122 
DISL,ioos:station:DISL:CATA:1,2012-11-04T18:00:00Z,30.3085,-88.1395,1.983,8.56,1111122 
DISL,ioos:station:DISL:CATA:1,2012-11-04T18:30:00Z,30.3085,-88.1395,1.984,8.66,1111122 
DISL,ioos:station:DISL:CATA:1,2012-11-04T19:00:00Z,30.3085,-88.1395,1.988,8.78,1111122 
DISL,ioos:station:DISL:CATA:1,2012-11-04T19:30:00Z,30.3085,-88.1395,2.012,8.53,1111122 
DISL,ioos:station:DISL:CATA:1,2012-11-04T20:00:00Z,30.3085,-88.1395,2.024,8.64,1111122 
DISL,ioos:station:DISL:CATA:1,2012-11-04T20:30:00Z,30.3085,-88.1395,2.051,9.05,1111122 
DISL,ioos:station:DISL:CATA:1,2012-11-04T21:00:00Z,30.3085,-88.1395,2.088,9.33,1111122 
DISL,ioos:station:DISL:CATA:1,2012-11-04T21:30:00Z,30.3085,-88.1395,2.092,9.14,1111122 
DISL,ioos:station:DISL:CATA:1,2012-11-04T22:00:00Z,30.3085,-88.1395,2.077,9.05,1111122 
DISL,ioos:station:DISL:CATA:1,2012-11-04T22:30:00Z,30.3085,-88.1395,2.078,8.84,1111122 
DISL,ioos:station:DISL:CATA:1,2012-11-04T23:00:00Z,30.3085,-88.1395,2.085,8.77,1111122 
DISL,ioos:station:DISL:CATA:1,2012-11-04T23:30:00Z,30.3085,-88.1395,2.152,8.65,1111122 
DISL,ioos:station:DISL:CATA:1,2012-11-05T00:00:00Z,30.3085,-88.1395,2.187,8.6,1111122 
DISL,ioos:station:DISL:CATA:1,2012-11-05T00:30:00Z,30.3085,-88.1395,2.213,8.56,1111122 
DISL,ioos:station:DISL:CATA:1,2012-11-05T01:00:00Z,30.3085,-88.1395,2.222,8.51,1111122 
DISL,ioos:station:DISL:CATA:1,2012-11-05T01:30:00Z,30.3085,-88.1395,2.26,8.45,1111122 
DISL,ioos:station:DISL:CATA:1,2012-11-05T02:00:00Z,30.3085,-88.1395,2.301,8.39,1111122 
DISL,ioos:station:DISL:CATA:1,2012-11-05T02:30:00Z,30.3085,-88.1395,2.314,8.28,1111122 
DISL,ioos:station:DISL:CATA:1,2012-11-05T03:00:00Z,30.3085,-88.1395,2.326,8.15,1111122 
DISL,ioos:station:DISL:CATA:1,2012-11-05T03:30:00Z,30.3085,-88.1395,2.332,8.03,1111122 
DISL,ioos:station:DISL:CATA:1,2012-11-05T04:00:00Z,30.3085,-88.1395,2.342,7.95,1111122 
DISL,ioos:station:DISL:CATA:1,2012-11-05T04:30:00Z,30.3085,-88.1395,2.347,7.95,1111122 
DISL,ioos:station:DISL:CATA:1,2012-11-05T05:00:00Z,30.3085,-88.1395,2.344,7.83,1111122 
DISL,ioos:station:DISL:CATA:1,2012-11-05T05:30:00Z,30.3085,-88.1395,2.352,7.77,1111122 
DISL,ioos:station:DISL:CATA:1,2012-11-05T06:00:00Z,30.3085,-88.1395,2.362,7.42,1111122 
DISL,ioos:station:DISL:CATA:1,2012-11-05T06:30:00Z,30.3085,-88.1395,2.375,7.64,1111122 
DISL,ioos:station:DISL:CATA:1,2012-11-05T07:00:00Z,30.3085,-88.1395,2.382,7.64,1111122 
DISL,ioos:station:DISL:CATA:1,2012-11-05T07:30:00Z,30.3085,-88.1395,2.368,7.63,1111122 
DISL,ioos:station:DISL:CATA:1,2012-11-05T08:00:00Z,30.3085,-88.1395,2.359,7.71,1111122 
DISL,ioos:station:DISL:CATA:1,2012-11-05T08:30:00Z,30.3085,-88.1395,2.34,7.79,1111122 
DISL,ioos:station:DISL:CATA:1,2012-11-05T09:00:00Z,30.3085,-88.1395,2.324,7.93,1111122 
DISL,ioos:station:DISL:CATA:1,2012-11-05T09:30:00Z,30.3085,-88.1395,2.294,8.0,1111122 
DISL,ioos:station:DISL:CATA:1,2012-11-05T10:00:00Z,30.3085,-88.1395,2.262,8.03,1111122 
DISL,ioos:station:DISL:CATA:1,2012-11-05T10:30:00Z,30.3085,-88.1395,2.244,8.02,1111122 
DISL,ioos:station:DISL:CATA:1,2012-11-05T11:00:00Z,30.3085,-88.1395,2.22,7.96,1111122 
DISL,ioos:station:DISL:CATA:1,2012-11-05T11:30:00Z,30.3085,-88.1395,2.189,7.92,1111122 
DISL,ioos:station:DISL:CATA:1,2012-11-05T12:00:00Z,30.3085,-88.1395,2.165,7.85,1111122 
DISL,ioos:station:DISL:CATA:1,2012-11-05T12:30:00Z,30.3085,-88.1395,2.136,7.86,1111122 
DISL,ioos:station:DISL:CATA:1,2012-11-05T13:00:00Z,30.3085,-88.1395,2.111,7.9,1111122 
DISL,ioos:station:DISL:CATA:1,2012-11-05T13:30:00Z,30.3085,-88.1395,2.088,7.92,1111122 
DISL,ioos:station:DISL:CATA:1,2012-11-05T14:00:00Z,30.3085,-88.1395,2.06,7.95,1111122 
DISL,ioos:station:DISL:CATA:1,2012-11-05T14:30:00Z,30.3085,-88.1395,2.057,7.99,1111122 
DISL,ioos:station:DISL:CATA:1,2012-11-05T15:00:00Z,30.3085,-88.1395,2.038,8.06,1111122 
DISL,ioos:station:DISL:CATA:1,2012-11-05T15:30:00Z,30.3085,-88.1395,2.017,8.09,1111122 
DISL,ioos:station:DISL:CATA:1,2012-11-05T16:00:00Z,30.3085,-88.1395,2.011,8.08,1111122 
DISL,ioos:station:DISL:CATA:1,2012-11-05T16:30:00Z,30.3085,-88.1395,2.018,8.21,1111122 
DISL,ioos:station:DISL:CATA:1,2012-11-05T17:00:00Z,30.3085,-88.1395,2.013,8.27,1111122 
DISL,ioos:station:DISL:CATA:1,2012-11-05T17:30:00Z,30.3085,-88.1395,2.014,8.36,1111122 
DISL,ioos:station:DISL:CATA:1,2012-11-05T18:00:00Z,30.3085,-88.1395,2.021,8.4,1111122 
DISL,ioos:station:DISL:CATA:1,2012-11-05T18:30:00Z,30.3085,-88.1395,2.039,8.44,1111122 
DISL,ioos:station:DISL:CATA:1,2012-11-05T19:00:00Z,30.3085,-88.1395,2.04,8.23,1111122 
DISL,ioos:station:DISL:CATA:1,2012-11-05T19:30:00Z,30.3085,-88.1395,2.054,8.06,1111122 
DISL,ioos:station:DISL:CATA:1,2012-11-05T20:00:00Z,30.3085,-88.1395,2.061,8.55,1111122 
DISL,ioos:station:DISL:CATA:1,2012-11-05T20:30:00Z,30.3085,-88.1395,2.082,8.64,1111122 
DISL,ioos:station:DISL:CATA:1,2012-11-05T21:00:00Z,30.3085,-88.1395,2.098,8.74,1111122 
DISL,ioos:station:DISL:CATA:1,2012-11-05T21:30:00Z,30.3085,-88.1395,2.114,8.98,1111122 
DISL,ioos:station:DISL:CATA:1,2012-11-05T22:00:00Z,30.3085,-88.1395,2.124,9.18,1111122 
DISL,ioos:station:DISL:CATA:1,2012-11-05T22:30:00Z,30.3085,-88.1395,2.151,9.21,1111122 
DISL,ioos:station:DISL:CATA:1,2012-11-05T23:00:00Z,30.3085,-88.1395,2.166,9.15,1111122 
DISL,ioos:station:DISL:CATA:1,2012-11-05T23:30:00Z,30.3085,-88.1395,2.179,9.07,1111122 
DISL,ioos:station:DISL:CATA:1,2012-11-06T00:00:00Z,30.3085,-88.1395,2.21,8.21,1111122 
DISL,ioos:station:DISL:CATA:1,2012-11-06T00:30:00Z,30.3085,-88.1395,2.222,8.85,1111122 
DISL,ioos:station:DISL:CATA:1,2012-11-06T01:00:00Z,30.3085,-88.1395,2.238,8.88,1111122 
DISL,ioos:station:DISL:CATA:1,2012-11-06T01:30:00Z,30.3085,-88.1395,2.242,8.79,1111122 
DISL,ioos:station:DISL:CATA:1,2012-11-06T02:00:00Z,30.3085,-88.1395,2.284,8.73,1111122 
DISL,ioos:station:DISL:CATA:1,2012-11-06T02:30:00Z,30.3085,-88.1395,2.313,8.81,1111122 
DISL,ioos:station:DISL:CATA:1,2012-11-06T03:00:00Z,30.3085,-88.1395,2.34,8.78,1111122 
DISL,ioos:station:DISL:CATA:1,2012-11-06T03:30:00Z,30.3085,-88.1395,2.365,8.7,1111122 
DISL,ioos:station:DISL:CATA:1,2012-11-06T04:00:00Z,30.3085,-88.1395,2.399,8.63,1111122 
DISL,ioos:station:DISL:CATA:1,2012-11-06T04:30:00Z,30.3085,-88.1395,2.42,8.45,1111122 
DISL,ioos:station:DISL:CATA:1,2012-11-06T05:00:00Z,30.3085,-88.1395,2.416,8.45,1111122 
DISL,ioos:station:DISL:CATA:1,2012-11-06T05:30:00Z,30.3085,-88.1395,2.449,8.3,1111122 
DISL,ioos:station:DISL:CATA:1,2012-11-06T06:00:00Z,30.3085,-88.1395,2.469,8.25,1111122 
DISL,ioos:station:DISL:CATA:1,2012-11-06T06:30:00Z,30.3085,-88.1395,2.551,8.17,1111122 
DISL,ioos:station:DISL:CATA:1,2012-11-06T07:00:00Z,30.3085,-88.1395,2.533,8.14,1111122 
DISL,ioos:station:DISL:CATA:1,2012-11-06T07:30:00Z,30.3085,-88.1395,2.475,8.09,1111122 
DISL,ioos:station:DISL:CATA:1,2012-11-06T08:00:00Z,30.3085,-88.1395,2.407,7.92,1111122 
DISL,ioos:station:DISL:CATA:1,2012-11-06T08:30:00Z,30.3085,-88.1395,2.394,7.99,1111122 
DISL,ioos:station:DISL:CATA:1,2012-11-06T09:00:00Z,30.3085,-88.1395,2.359,8.29,1111122 
DISL,ioos:station:DISL:CATA:1,2012-11-06T09:30:00Z,30.3085,-88.1395,2.327,8.13,1111122 
DISL,ioos:station:DISL:CATA:1,2012-11-06T10:00:00Z,30.3085,-88.1395,2.292,8.07,1111122 
DISL,ioos:station:DISL:CATA:1,2012-11-06T10:30:00Z,30.3085,-88.1395,2.251,8.1,1111122 
DISL,ioos:station:DISL:CATA:1,2012-11-06T11:00:00Z,30.3085,-88.1395,2.241,8.06,1111122 
DISL,ioos:station:DISL:CATA:1,2012-11-06T11:30:00Z,30.3085,-88.1395,2.215,7.96,1111122 
DISL,ioos:station:DISL:CATA:1,2012-11-06T12:00:00Z,30.3085,-88.1395,2.209,8.03,1111122 
DISL,ioos:station:DISL:CATA:1,2012-11-06T12:30:00Z,30.3085,-88.1395,2.232,8.01,1111122 
DISL,ioos:station:DISL:CATA:1,2012-11-06T13:00:00Z,30.3085,-88.1395,2.229,8.0,1111122 
DISL,ioos:station:DISL:CATA:1,2012-11-06T13:30:00Z,30.3085,-88.1395,2.215,8.01,1111122 
DISL,ioos:station:DISL:CATA:1,2012-11-06T14:00:00Z,30.3085,-88.1395,2.192,8.02,1111122 
DISL,ioos:station:DISL:CATA:1,2012-11-06T14:30:00Z,30.3085,-88.1395,2.164,8.03,1111122 
DISL,ioos:station:DISL:CATA:1,2012-11-06T15:00:00Z,30.3085,-88.1395,2.13,8.07,1111122 
DISL,ioos:station:DISL:CATA:1,2012-11-06T15:30:00Z,30.3085,-88.1395,2.091,8.09,1111122 